Regional Weather Roundup
Issued by NWS

Home | Current Version | Previous Version | Text Only | Print | Product List | Glossary Off
Versions: 1 2 3 4 5 6 7 8 9 10 11 12 13 14 15 16 17 18 19 20 21 22 23 24 25 26 27 28 29 30 31 32 33 34 35 36 37 38 39 40 41 42 43 44 45 46 47 48 49 50

000
ASUS43 KDTX 272001
RWRMI
MICHIGAN HOURLY REGIONAL WEATHER ROUNDUP
NATIONAL WEATHER SERVICE DETROIT/PONTIAC MI
400 PM EDT WED JUL 27 2016

NOTE: "FAIR" INDICATES FEW OR NO CLOUDS BELOW 12,000 FEET WITH NO
SIGNIFICANT WEATHER AND/OR OBSTRUCTION TO VISIBILITY.

MIZ047>049-052>055-059>063-066>070-074>076-081>083-272100-
SOUTHEAST LOWER MICHIGAN

CITY           SKY/WX    TMP DP  RH WIND       PRES   REMARKS
ADRIAN         MOSUNNY   87  61  41 SW8       29.97F
ALMA           PTSUNNY   88  69  53 W10       29.96R HX  91
ANN ARBOR      SUNNY     87  60  40 S6        29.95F
BAD AXE        CLOUDY    89  63  42 W5        29.94S
CARO           CLOUDY    91  66  44 W7        29.93F HX  93
DETROIT CITY     N/A     88  62  41 SW7       29.94F
DETROIT        MOSUNNY   91  61  36 W7        29.95F HX  91
FLINT          PTSUNNY   92  63  38 W10       29.95F HX  93
GROSSE ILE     SUNNY     84  67  56 S12       29.94F
HILLSDALE      SUNNY     86  60  42 CALM      29.99F
HOWELL         MOSUNNY   87  60  40 SW7       29.97F

CITY           SKY/WX    TMP DP  RH WIND       PRES   REMARKS
JACKSON        SUNNY     87  61  41 VRB6      29.98F
LAMBERTVILLE   SUNNY     89  58  35 N5        29.97F
LANSING        MOSUNNY   88  64  44 W12       29.97F
LAPEER         PTSUNNY   89  62  39 SW9       29.95S
MASON          SUNNY     87  64  46 SW6       29.97F
MONROE         SUNNY     88  67  51 W7        29.95F HX  91
MT. CLEMENS    MOSUNNY   88  64  45 S9        29.92F
PONTIAC        PTSUNNY   88  62  41 NW7       29.95F
PORT HOPE        N/A     79  68  69 N9        29.94F
PORT HURON     SUNNY     86  63  45 CALM      29.94F
TRI CITIES     MOSUNNY   87  68  52 MISG      29.93F HX  90
MIDLAND        HVY RAIN  68  65  90 N14G28    29.97R
TROY           MOSUNNY   91  56  30 N7        29.96F
SAGINAW HB     MOSUNNY   90  64  43 SW9G16    29.92F HX  91
$$
MIZ043>046-050>051-056>058-064>065-071>073-077>080-272100-
SOUTHWEST LOWER MICHIGAN

CITY           SKY/WX    TMP DP  RH WIND       PRES   REMARKS
BATTLE CREEK   SUNNY     83  64  52 VRB6      29.99F
BENTON HARBOR  SUNNY     84  65  52 NW7       29.98F
BIG RAPIDS     RAIN      68  67  96 W8        29.99S
COLDWATER      SUNNY     85  60  42 N5        29.98F
FREMONT        PTSUNNY   85  69  59 W12       29.96F
HOLLAND        SUNNY     84  68  58 W9        29.99F
GRAND RAPIDS   PTSUNNY   86  66  51 SW12      29.97F
IONIA          FAIR      87  64  45 W9        29.95F
KALAMAZOO      MOSUNNY   85  64  49 NW6       29.98F
LUDINGTON      CLOUDY    78  69  74 N9        29.97S
MARSHALL       SUNNY     88  61  40 W7        29.98F
MOUNT PLEASANT LGT RAIN  70  64  80 E12       30.01R
MUSKEGON       PTSUNNY   83  68  60 SW10      29.98S
SOUTH HAVEN    SUNNY     83  66  56 W6        29.99S
$$
MIZ016>042-272100-
NORTHERN LOWER MICHIGAN

CITY           SKY/WX    TMP DP  RH WIND       PRES   REMARKS
ALPENA         CLOUDY    81  65  58 SE8       29.95S
BEAVER ISLAND  CLOUDY    74  67  80 W5        29.97S
BELLAIRE       MOSUNNY   80  65  60 NW7G16    29.97S
CADILLAC       CLOUDY    74  65  74 S5        29.99F
CHARLEVOIX     CLOUDY    76  65  68 W6        30.00S
FRANKFORT      MOSUNNY   82  64  52 CALM      29.95F
GAYLORD        MOSUNNY   85  60  42 VRB7      29.98S
GRAYLING       CLOUDY    87  61  41 W6        29.97S
HARBOR SPRINGS MOSUNNY   75  69  80 SW7       29.96S
HOUGHTON LAKE  TSTM      70  64  81 SW15G24   30.00R
MANISTEE       MOSUNNY   82  66  58 VRB5      29.96F
OSCODA         CLOUDY    79  64  61 SE6       29.95R
PELLSTON       SUNNY     82  64  54 W10       29.96F
ROGERS CITY    MOSUNNY   75  62  62 N7        29.97F
TRAVERSE CITY  PTSUNNY   83  65  54 N14       29.94F
$$
MIZ007>008-015-272100-
EASTERN UPPER MICHIGAN

CITY           SKY/WX    TMP DP  RH WIND       PRES   REMARKS
KINROSS        MOSUNNY   79  54  41 N10       29.97F
MACKINAC ISLAN MOSUNNY   76  65  68 SW5       29.96S
S. S. MARIE    CLOUDY    81  53  37 NW12      29.95F
$$
MIZ004>006-011>014-085-272100-
CENTRAL UPPER MICHIGAN

CITY           SKY/WX    TMP DP  RH WIND       PRES   REMARKS
MANISTIQUE     CLOUDY    75  65  72 NE8       29.97S
ESCANABA       CLOUDY    77  64  65 N7        29.94F
MENOMINEE      CLOUDY   N/A N/A N/A CALM        N/A
SAWYER-GWINN   MOSUNNY   68  61  77 NE10      30.01F
$$
MIZ001>003-009>011-084-272100-
WESTERN UPPER MICHIGAN

CITY           SKY/WX    TMP DP  RH WIND       PRES   REMARKS
IRON MOUNTAIN  CLOUDY    73  64  73 NW5       29.99S
HOUGHTON       CLOUDY    68  56  65 E9        30.02F
COPPER HARBOR    N/A     65  56  72 CALM      30.03
IRONWOOD       CLOUDY    72  68  88 NE6       29.99F
$$

ABBREVIATIONS USED IN REMARKS
   TC - TEMPERATURE IN CELSIUS
  WCI - WIND CHILL INDEX
   HX - HEAT INDEX
  VSB - VISIBILITY





USA.gov is the U.S. government's official web portal to all federal, state and local government web resources and services.